Voltar ao catálogo

FENGYUN 1C DEB

AtivoPO
NORAD 31725·DEBRIS·🇨🇳 China

Lançado May 10, 1999 de Taiyuan Satellite Launch Center

Loading…

Próximas Passagens (próximas 24 horas)

TLE

AtualizadoSource: Space-Track

Época: Sep 14, 2026, 06:13 UTC

1 31725U 99025CDY 26257.25946985  .00000636  00000-0  10719-2 0  9998
2 31725  99.1807  69.8921 0687579  75.4314 292.1982 12.79862466900053

Acompanhe FENGYUN 1C DEB em tempo real com AllMySat

Download on the App Store